Weather Roundup
Issued by NWS

Home | Current Version | Previous Version | Graphics & Text | Print | Product List | Glossary Off
Versions: 1 2 3 4 5 6 7 8 9 10 11 12 13 14 15 16 17 18 19 20 21 22 23 24 25 26 27 28 29 30 31 32 33 34 35 36 37 38 39 40 41 42 43 44 45 46 47 48 49 50

000
NZUS93 KARX 170559
HRRWXR

CURRENT HOURLY OBSERVATIONS ACROSS
MUCH OF THE UPPER MISSISSIPPI VALLEY
NATIONAL WEATHER SERVICE LA CROSSE WI
100 AM CDT WED SEP 17 2014


...SOUTHEAST MINNESOTA...


CITY           SKY/WX    TMP DP  RH WIND       PRES   REMARKS
ROCHESTER      PTCLDY    47  43  86 S7        30.03F
ROCHESTER/MAYO CLOUDY    52  42  69 S5        30.03F
WINONA         CLEAR     48  46  93 CALM      30.04S
AUSTIN         PTCLDY    48  45  87 CALM      30.02F
ALBERT LEA     PTCLDY    54  46  76 S5        30.01F
DODGE CENTER   CLOUDY    52  48  87 S6        30.02F
PRESTON        CLEAR     49  46  91 SW3       30.05R
OWATONNA       CLOUDY    55  46  71 S7        30.01F
FARIBAULT      CLOUDY    57  45  62 S3        30.01F
$$

...ELSEWHERE IN MINNESOTA...


CITY           SKY/WX    TMP DP  RH WIND       PRES   REMARKS
MINNEAPOLIS    CLOUDY    56  47  71 E5        29.99F
INTNL FALLS    CLOUDY    52  47  83 SW7       29.87F
DULUTH         PTCLDY    50  42  74 W8        29.96F
RED WING       CLOUDY    48  46  93 CALM      30.00F
REDWOOD FALLS  CLOUDY    59  51  75 S5        29.96F
MANKATO        CLOUDY    55  45  67 S6        29.99F
WORTHINGTON    CLOUDY    57  46  67 S7        29.99S
FAIRMONT       CLOUDY    54  45  71 S7        29.99F
$$

...SOUTHWEST WISCONSIN...


CITY           SKY/WX    TMP DP  RH WIND       PRES   REMARKS
LA CROSSE      CLEAR     49  46  90 SE6       30.04F
PRAIRIE DU CHI CLEAR     46  44  93 SE3       30.06S
BOSCOBEL       FOG       47  46  97 CALM      30.07F VSB 1/4
LONE ROCK      FOG       45  41  86 CALM      30.07S VSB 1/2
PLATTEVILLE    CLEAR     48  44  86 CALM      30.08S
FORT MC COY    CLEAR     38  38  99 CALM      30.06S
CAMP DOUGLAS   CLEAR     37  37 100 E2        30.04F
VIROQUA        FAIR      51  44  77 S7        30.05S
WIS DELLS      CLEAR     44  42  95 CALM      30.06S
$$

...ELSEWHERE IN WISCONSIN...


CITY           SKY/WX    TMP DP  RH WIND       PRES   REMARKS
MILWAUKEE      CLEAR     50  44  80 SW7       30.07F
MADISON        CLEAR     44  42  93 CALM      30.06F
GREEN BAY      CLEAR     46  44  93 CALM      30.03F
EAU CLAIRE     NOT AVBL
BLACK RVR FLS  FOG       37  37 100 CALM      30.04S VSB 1/4
MEDFORD        CLEAR     40  39  96 CALM      30.03F
WAUSAU         CLEAR     45  43  93 CALM      30.02F
WIS RAPIDS     CLEAR     43  41  93 SW3       30.05F
MARSHFIELD     CLEAR     45  42  89 CALM      30.03F
RICE LAKE      FOG       42  41  97 CALM      30.03F VSB<1/4
$$

...NORTHEAST IOWA...


CITY           SKY/WX    TMP DP  RH WIND       PRES   REMARKS
WATERLOO       CLEAR     48  44  86 S5        30.04F
DUBUQUE        CLEAR     45  42  89 CALM      30.07F
DECORAH        CLEAR     50  45  81 CALM      30.04S
MASON CITY     CLEAR     46  44  93 S3        30.04F
CHARLES CITY   CLEAR     48  45  87 S7        30.04F
OELWEIN        CLEAR     46  43  87 S6        30.06F
$$

...ELSEWHERE IN IOWA...


CITY           SKY/WX    TMP DP  RH WIND       PRES   REMARKS
DES MOINES     MOCLDY    55  49  80 SE6       30.03F
IOWA CITY      CLEAR     48  46  93 CALM      30.08F
FORT DODGE     MOCLDY    54  46  76 S3        30.03S
MARSHALLTOWN   CLOUDY    51  47  86 SE5       30.04F
CEDAR RAPIDS   CLEAR     46  45  96 CALM      30.06F
$$

...NORTHERN ILLINOIS...


CITY           SKY/WX    TMP DP  RH WIND       PRES   REMARKS
CHICAGO-OHARE  CLEAR     55  47  74 SW3       30.08F
DUPAGE         CLEAR     46  43  89 CALM      30.08F
CHICAGO-MIDWAY CLEAR     56  48  74 SE5       30.08F
MOLINE         CLEAR     46  43  89 CALM      30.08F
ROCKFORD       CLEAR     44  41  89 S3        30.10F
STERLING       CLEAR     43  39  87 CALM      30.08F
PEORIA         CLEAR     50  46  86 CALM      30.09S
$$

NOTE: "FAIR" INDICATES FEW OR NO CLOUDS BELOW 12,000 FEET WITH NO
SIGNIFICANT WEATHER AND/OR OBSTRUCTIONS TO VISIBILITY. WIND
SPEEDS ARE IN MILES-PER-HOUR.



USA.gov is the U.S. government's official web portal to all federal, state and local government web resources and services.